Powrót do katalogu

STARLINK-33759

AktywnyŁącznośćVLEO
NORAD 64007·PAYLOAD·🇺🇸 United States

Wystrzelony May 14, 2025 z Cape Canaveral Space Force Station

Loading…

Następne Przeloty (najbliższe 24 godziny)

TLE

ŚwieżeSource: CelesTrak SupGP

Epoka: Sep 15, 2026, 02:37 UTC

1 64007C 25101P   26258.10951389  .00016314  00000+0  59079-3 0  2580
2 64007  43.0037   7.9968 0001578 267.0671 217.6002 15.27576288    15

Śledź STARLINK-33759 w czasie rzeczywistym z AllMySat

Download on the App Store